SCP
0 0 0 0 0 0 0 0 0 0 0 0 0 0 0 0 0 0 0 0 0 0 0 0 0 0 0 0 0 0 0 0 0 0 0 0 0 0
0 0 0 0 0 0 0 0 0 0 0 0 0 0 0 0 0 0 0 0 0 0 0 0 0 0 0 0 0 0 0 0 0 0 0 0 0 0
0 0 0 0 0 0 0 0 0 0 0 0 0 0 0 0 0 0 0 0 0 0 0 0 0 0 0 0 0 0 0 0 0 0 0 0 0 0
0 0 0 0 0 0 0 0 0 0 0 0 0 0 0 0 0 0 0 0 0 0 0 0 0 0 0 0 0 0 0 0 0 0 0 0 0 0
0 0 0 0 0 0 0 0 0 0 0 0 0 0 0 0 0 0 0 0 0 0 0 0 0 0 0 0 0 0 0 0 0 0 0 0 0 0
0 0 0 0 0 0 0 0 0 0 0 0 0 0 0 0 0 0 0 0 0 0 0 0 0 0 0 0 0 0 0 0 0 0 0 0 0 0
0 0 0 0 0 0 0 0 0 0 0 0 0 0 0 0 0 0 0 0 0 0 0 0 0 0 0 0 0 0 0 0 0 0 0 0 0 0
0 0 0 0 0 0 0 0 0 0 0 0 0 0 0 0 0 0 0 0 0 0 0 0 0 0 0 0 0 0 0 0 0 0 0 0 0 0
0 0 0 0 0 0 0 0 0 0 0 0 0 0 0 0 0 0 0 0 0 0 0 0 0 0 0 0 0 0 0 0 0 0 0 0 0 0
0 0 0 0 0 0 0 0 0 0 0 0 0 0 0 0 0 0 0 0 0 0 0 0 0 0 0 0 0 0 0 0 0 0 0 0 0 0
0 0 0 0 0 0 0 0 0 0 0 0 0 0 0 0 0 0 0 0 0 0 0 0 0 0 0 0 0 0 0 0 0 0 0 0 0 0
0 0 0 0 0 0 0 0 0 0 0 0 0 0 0 0 0 0 0 0 0 0 0 0 0 0 0 0 0 0 0 0 0 0 0 0 0 0
0 0 0 0 0 0 0 0 0 0 0 0 0 0 0 0 0 0 0 0 0 0 0 0 0 0 0 0 0 0 0 0 0 0 0 0 0 0
0 0 0 0 0 0 0 0 0 0 0 0 0 0 0 0 0 0 0 0 0 0 0 0 0 0 0 0 0 0 0 0 0 0 0 0 0 0
0 0 0 0 0 0 0 0 0 0 0 0 0 0 0 0 0 0 0 0 0 0 0 0 0 0 0 0 0 0 0 0 0 0 0 0 0 0
0 0 0 0 0 0 0 0 0 0 0 0 0 0 0 0 0 0 0 0 0 0 0 0 0 0 0 0 0 0 0 0 0 0 0 0 0 0
0 0 0 0 0 0 0 0 0 0 0 0 0 0 0 0 0 0 0 0 0 0 0 0 0 0 0 0 0 0 0 0 0 0 0 0 0 0
0 0 0 0 0 0 0 0 0 0 0 0 0 0 0 0 0 0 0 0 0 0 0 0 0 0 0 0 0 0 0 0 0 0 0 0 0 0
0 0 0 0 0 0 0 0 0 0 0 0 0 0 0 0 0 0 0 0 0 0 0 0 0 0 0 0 0 0 0 0 0 0 0 0 0 0
0 0 0 0 0 0 0 0 0 0 0 0 0 0 0 0 0 0 0 0 0 0 0 0 0 0 0 0 0 0 0 0 0 0 0 0 0 0
0 0 0 0 0 0 0 0 0 0 0 0 0 0 0 0 0 0 0 0 0 0 0 0 0 0 0 0 0 0 0 0 0 0 0 0 0 0
0 0 0 0 0 0 0 0 0 0 0 0 0 0 0 0 0 0 0 0 0 0 0 0 0 0 0 0 0 0 0 0 0 0 0 0 0 0
0 0 0 0 0 0 0 0 0 0 0 0 0 0 0 0 0 0 0 0 0 0 0 0 0 0 0 0 0 0 0 0 0 0 0 0 0 0
Wind_Speed
1 1 1 1 2 2 2 4 5 4 3 2 2 3 4 5 7 6 7 11 12 11 11 11 10 10 9 9 9 8 7 6 6 5 4 4 3 3
1 1 1 1 1 2 2 2 2 4 4 3 3 4 5 6 8 6 7 11 10 10 10 10 9 8 8 8 8 7 6 5 4 3 3 2 1 0
2 1 1 1 0 1 2 2 3 4 6 5 5 6 7 7 6 5 5 4 5 8 9 8 8 7 6 6 6 5 4 4 3 3 2 1 1 2
3 2 1 1 2 2 3 4 4 4 8 10 6 5 6 6 5 5 4 4 4 6 7 6 5 5 4 4 4 4 4 3 3 3 3 3 4 4
3 3 2 3 4 4 5 5 5 7 7 10 8 5 4 4 5 4 4 3 3 4 4 4 3 3 3 4 4 5 4 4 4 4 4 5 5 6
5 4 4 4 4 5 6 7 8 10 9 9 8 5 4 4 4 4 3 2 2 2 2 2 2 2 4 5 5 6 6 6 6 6 6 6 6 6
6 6 6 8 8 6 7 8 9 9 8 8 7 5 4 3 3 2 3 2 2 1 1 0 1 1 2 3 5 6 7 7 7 7 8 8 8 8
7 7 8 9 11 13 13 11 10 10 9 7 6 6 5 4 3 3 3 2 1 1 0 0 0 1 2 2 4 5 6 7 8 8 8 9 9 9
7 6 7 8 9 10 13 14 12 10 8 7 8 6 5 5 5 4 3 2 1 0 1 0 1 2 2 3 5 5 6 7 7 8 9 9 10 10
8 7 8 8 8 9 10 11 10 8 7 6 6 5 5 4 4 4 4 3 2 1 0 0 1 2 2 3 4 5 6 7 7 8 9 9 9 10
9 9 8 8 10 11 11 11 10 8 10 11 9 8 7 6 5 4 4 3 1 0 0 1 1 2 2 2 2 4 5 6 7 8 9 9 9 8
7 9 11 10 10 10 9 9 9 6 6 7 8 7 6 6 4 2 3 2 1 0 1 1 0 1 2 2 2 3 3 4 6 8 9 9 7 5
6 6 6 11 12 12 9 7 7 6 6 6 6 5 4 3 3 2 1 1 1 1 2 2 1 0 1 2 3 3 2 3 3 4 6 7 7 6
5 4 5 10 12 11 8 8 9 7 5 5 4 4 3 2 2 1 0 1 2 2 2 3 1 2 1 2 3 3 3 3 3 4 4 5 7 9
4 6 7 10 10 8 9 8 6 5 4 4 3 2 1 1 1 1 1 1 1 1 2 3 3 2 2 2 3 3 4 4 3 3 4 5 5 4
4 6 8 10 8 6 6 5 4 3 3 3 2 1 1 1 2 2 2 2 2 2 1 1 3 3 3 3 3 4 4 4 4 4 5 5 5 5
3 4 4 4 4 4 4 4 3 3 3 2 2 2 2 2 2 2 2 1 2 2 3 2 1 3 5 4 4 5 5 4 5 4 4 5 6 6
4 3 3 3 3 2 2 2 2 2 2 1 1 1 1 1 1 1 1 1 1 2 2 3 3 3 2 4 7 6 5 5 5 5 4 4 7 7
4 2 2 1 1 1 1 1 1 1 1 1 1 1 0 1 1 1 1 1 2 3 3 2 2 2 4 6 5 6 5 6 5 5 5 5 7 8
2 1 1 0 0 0 0 0 0 0 0 0 0 0 1 1 1 2 2 2 3 3 3 3 2 2 3 5 6 5 6 7 5 6 7 6 7 10
0 0 1 1 1 1 1 1 1 1 1 1 1 1 1 1 2 2 2 3 3 3 4 5 4 4 4 4 6 7 6 7 9 7 8 8 8 8
1 1 1 2 2 2 1 1 1 2 2 2 2 2 2 2 3 4 3 3 4 4 5 6 5 4 3 5 8 9 10 9 9 13 15 13 8 8
2 2 2 2 2 2 2 3 3 3 3 3 3 3 3 3 3 4 4 4 5 5 5 6 5 4 5 6 8 9 13 12 10 9 10 11 17 21
Wind_Direction
292 260 233 226 206 200 184 175 163 160 145 127 109 94 95 88 91 93 97 102 103 104 105 107 107 109 112 113 113 112 111 115 119 117 114 110 100 84
353 359 323 261 219 194 189 181 158 147 137 126 117 121 109 104 98 95 98 105 106 108 110 111 112 114 117 123 127 130 131 134 135 137 138 135 125 7
13 15 356 343 125 130 130 130 121 124 125 111 104 112 105 105 99 88 90 93 106 112 115 118 121 124 131 135 138 142 148 156 166 181 197 220 257 278
19 31 32 69 88 101 112 114 112 113 125 123 117 108 101 106 102 98 97 101 110 115 118 124 129 135 146 155 162 167 177 191 206 222 238 254 266 275
37 46 51 81 89 92 102 106 105 105 108 118 116 104 97 106 104 96 92 91 117 123 124 133 146 162 182 193 198 201 207 218 228 236 245 256 265 273
50 52 59 76 93 100 102 105 107 108 109 113 114 109 102 102 109 112 105 90 101 110 110 134 163 206 220 220 222 223 226 231 237 243 248 254 261 266
56 56 66 79 87 98 107 111 113 113 115 117 117 115 114 122 120 118 118 110 85 75 109 143 214 237 244 241 238 236 236 237 240 243 247 251 256 260
63 61 66 71 82 88 94 100 111 122 125 123 125 128 127 125 118 122 124 122 111 71 143 284 259 258 256 249 250 247 242 242 244 247 248 250 253 256
59 65 72 71 80 90 87 84 83 91 108 123 129 133 138 146 138 126 122 113 102 95 177 245 302 276 270 263 259 254 248 247 249 250 251 251 253 255
54 62 75 71 79 92 91 84 77 73 85 99 117 126 132 139 137 131 131 115 89 84 182 263 314 288 294 286 272 266 263 258 256 255 254 256 257 258
50 54 68 75 78 90 93 90 83 71 72 83 90 97 107 119 128 121 117 112 92 50 147 245 308 306 297 293 294 290 281 271 264 262 261 259 259 261
52 48 55 71 73 82 92 96 91 83 86 81 75 71 81 91 100 116 135 127 121 159 185 212 286 324 315 299 297 303 295 277 275 272 269 269 266 258
60 48 48 67 73 74 81 89 100 99 86 85 80 74 71 71 69 74 135 161 157 201 190 188 200 231 282 301 302 296 296 292 294 279 274 273 267 243
70 57 63 73 73 73 78 91 95 90 86 81 75 67 62 53 37 25 10 223 240 244 209 198 213 207 237 280 290 297 297 285 276 279 288 288 275 252
73 78 81 78 73 69 72 79 82 84 86 83 75 55 23 353 349 5 25 8 310 254 215 207 211 208 222 250 275 284 298 297 282 280 287 288 282 274
66 65 68 68 68 66 60 57 60 72 88 87 75 46 27 38 40 26 22 11 13 4 12 211 219 214 234 241 252 271 274 279 291 292 290 284 274 262
81 61 54 52 55 53 52 51 53 63 70 69 71 61 46 43 32 24 23 20 18 342 331 335 287 248 242 249 265 271 279 280 276 287 288 288 284 277
84 71 63 60 63 59 57 51 50 55 56 68 67 56 39 30 25 21 22 7 343 321 314 319 327 323 295 245 224 260 279 278 287 287 272 278 288 290
78 81 82 75 76 78 73 60 40 32 45 67 66 46 30 4 355 348 344 332 320 313 307 306 307 312 314 314 298 225 244 283 289 289 280 270 278 287
65 83 95 112 175 191 200 196 229 331 65 3 323 304 299 303 306 304 306 300 302 302 301 297 281 271 275 294 297 290 246 252 271 283 290 287 276 275
4 273 236 243 241 230 228 223 222 237 248 255 267 269 266 263 272 277 280 280 279 284 295 298 294 279 265 261 278 286 280 248 236 258 280 289 292 290
260 253 245 236 232 230 230 225 231 240 245 247 252 257 255 250 260 271 276 279 277 276 281 287 294 290 264 277 292 297 297 296 276 249 243 240 264 281
252 249 243 237 229 227 226 228 233 244 245 248 253 255 256 256 258 262 268 271 274 280 286 293 299 292 285 285 289 292 294 297 300 299 289 262 242 249